{"data":{"norad_id":43562,"intl_designator":"2018-059A","name":"TELSTAR 19V","alt_names":[],"object_type":"PAYLOAD","status":"ACTIVE","operator":null,"country":"CA","launch_date":"2018-07-22","launch_site_code":"AFETR","launch_vehicle":null,"mission":null,"orbit_class":"UNKNOWN","rcs_meters":null,"size_class":null,"mass_kg":null,"dimensions":null,"purposes":["comms"],"wikipedia_slug":null,"has_3d_model":false,"image_url":null,"decayed_at":null,"tle_current":{"epoch":"2026-05-25T04:10:09.901344Z","epoch_age_seconds":60148,"freshness":"FRESH","line1":"1 43562U 18059A   26145.17372571 -.00000282  00000+0  00000+0 0  9995","line2":"2 43562   0.0356 154.2827 0002344 307.4528 140.5663  1.00271210 28916","mean_motion":1.0027121,"eccentricity":0.0002344,"inclination_deg":0.0356,"raan_deg":154.2827,"arg_perigee_deg":307.4528,"mean_anomaly_deg":140.5663,"bstar":0,"rev_number":2891,"period_min":1436.1051392518,"perigee_km":35776.872704378,"apogee_km":35796.63960629,"semimajor_km":42164.893155334,"source":"CELESTRAK","updated_at":"2026-05-25T13:38:14.055725Z"}}}